EW0860 Weather Reports


Display with metric or nautical units.
time (UTC)temp
F
wind
direction
speed
MPH
gust
MPH
rain 1hr
in
rain 24hr
in
rain mn
in
humidity
%
barometer
mb
20260506160052 56 307 6.0 11.0 0.00 0.02 0.01 42 1017.2
20260506154607 55 297 5.0 11.0 0.00 0.02 0.01 42 1017.0
20260506153047 55 31 4.0 9.0 0.00 0.02 0.01 46 1017.0
20260506151544 54 342 3.0 10.0 0.00 0.07 0.01 46 1017.1
20260506150041 53 342 3.0 7.0 0.00 0.07 0.01 54 1017.0
20260506144544 52 279 3.0 6.0 0.00 0.07 0.01 58 1017.0
20260506143035 51 323 3.0 7.0 0.00 0.07 0.01 59 1016.9
20260506141532 51 335 2.0 6.0 0.00 0.15 0.01 62 1016.7
20260506140033 50 160 1.0 5.0 0.00 0.15 0.01 63 1016.7
20260506134526 50 318 2.0 5.0 0.00 0.15 0.01 63 1016.4
20260506133025 49 316 2.0 4.0 0.00 0.15 0.01 65 1016.3
20260506131522 49 315 2.0 5.0 0.00 0.21 0.01 67 1016.0
20260506130019 49 13 2.0 4.0 0.00 0.21 0.01 69 1015.7
20260506124518 47 305 0.0 3.0 0.00 0.21 0.01 73 1015.5
20260506123015 46 308 1.0 3.0 0.00 0.21 0.01 78 1015.0
20260506121514 45 308 0.0 0.0 0.00 0.22 0.01 83 1015.0
20260506120011 45 308 0.0 0.0 0.00 0.22 0.01 84 1014.6
20260506114509 45 308 0.0 0.0 0.00 0.22 0.01 83 1014.2
20260506113006 46 308 0.0 0.0 0.00 0.22 0.01 82 1014.1
20260506111506 46 308 0.0 0.0 0.00 0.22 0.01 81 1014.1
20260506110005 46 308 0.0 4.0 0.00 0.22 0.01 81 1014.2
20260506104513 47 308 0.0 0.0 0.00 0.22 0.01 80 1014.3
20260506103008 47 308 0.0 0.0 0.00 0.22 0.01 80 1014.3
20260506101507 47 308 0.0 3.0 0.00 0.22 0.01 82 1014.3
20260506100001 46 310 0.0 3.0 0.00 0.22 0.01 83 1013.9
20260506094600 46 227 0.0 3.0 0.00 0.22 0.01 84 1013.3
20260506093059 46 227 0.0 4.0 0.00 0.22 0.01 84 1013.5
20260506091602 46 35 0.0 0.0 0.00 0.22 0.01 84 1013.4
20260506090058 46 63 0.0 0.0 0.00 0.22 0.01 84 1013.4
20260506084557 46 63 0.0 0.0 0.00 0.22 0.01 85 1013.4
20260506083057 46 63 0.0 0.0 0.00 0.22 0.01 86 1013.5
20260506081600 46 63 0.0 0.0 0.00 0.22 0.01 86 1013.3
20260506073052 47 63 0.0 0.0 0.00 0.22 0.01 84 1012.5
20260506071559 47 63 0.0 0.0 0.00 0.22 0.01 83 1012.3
20260506061542 49 63 0.0 4.0 0.01 0.22 0.01 73 1012.5
20260506044533 50 293 2.0 15.0 0.00 0.21 0.21 70 1013.3
20260506043027 49 314 4.0 9.0 0.00 0.21 0.21 75 1012.7
20260506041523 49 345 1.0 4.0 0.00 0.21 0.21 82 1012.4
20260506040038 50 345 0.0 2.0 0.00 0.21 0.21 80 1012.1
20260506034522 50 345 0.0 0.0 0.00 0.21 0.21 79 1012.0
20260506033020 51 345 0.0 0.0 0.00 0.21 0.21 77 1011.4
20260506031515 51 345 0.0 0.0 0.00 0.21 0.21 73 1011.0
20260506030012 52 345 0.0 0.0 0.00 0.21 0.21 71 1010.7
20260506024524 52 345 0.0 0.0 0.00 0.21 0.21 67 1010.6
20260506023011 52 345 0.0 0.0 0.00 0.21 0.21 66 1010.5
20260506021509 52 345 0.0 4.0 0.00 0.21 0.21 65 1010.2
20260506020009 52 310 0.0 4.0 0.00 0.21 0.21 65 1010.1
20260506014515 52 321 0.0 2.0 0.00 0.21 0.21 72 1009.9
20260506013007 53 321 0.0 0.0 0.00 0.21 0.21 67 1009.7
20260506011513 54 321 0.0 0.0 0.00 0.21 0.21 60 1009.4
20260506010010 54 321 0.0 3.0 0.00 0.21 0.21 57 1009.2
20260506004507 55 321 0.0 4.0 0.00 0.21 0.21 56 1009.2
20260506003005 55 324 2.0 6.0 0.00 0.21 0.21 55 1009.1
20260506001504 55 320 1.0 4.0 0.00 0.21 0.21 55 1009.1
20260506000004 55 330 0.0 4.0 0.00 0.21 0.21 57 1008.9
20260505234510 55 307 1.0 6.0 0.00 0.21 0.21 60 1008.9
20260505233003 56 309 1.0 3.0 0.00 0.21 0.21 75 1008.8
20260505231503 55 308 0.0 2.0 0.00 0.21 0.21 76 1008.8
20260505230002 56 308 0.0 1.0 0.00 0.21 0.21 75 1009.0
20260505224601 55 308 1.0 3.0 0.00 0.21 0.21 74 1008.6
20260505223002 55 308 0.0 4.0 0.00 0.21 0.21 75 1008.5
20260505221500 55 309 0.0 2.0 0.00 0.21 0.21 74 1008.7
20260505214604 55 8 0.0 4.0 0.00 0.21 0.21 75 1008.8
20260505213059 54 10 0.0 4.0 0.00 0.21 0.21 74 1008.8
20260505211634 54 11 0.0 4.0 0.00 0.21 0.21 73 1008.8
20260505210058 54 25 1.0 3.0 0.00 0.21 0.21 73 1008.8
20260505204559 54 335 0.0 3.0 0.00 0.21 0.21 73 1008.9
20260505203123 54 341 1.0 4.0 0.00 0.21 0.21 75 1009.2
20260505201559 53 345 2.0 5.0 0.00 0.21 0.21 73 1009.1
20260505200056 53 345 2.0 5.0 0.00 0.21 0.21 72 1009.3
20260505194556 52 347 0.0 4.0 0.00 0.21 0.21 71 1009.2
20260505193056 52 339 2.0 4.0 0.00 0.21 0.21 74 1009.4
20260505191557 52 339 1.0 4.0 0.00 0.21 0.21 74 1009.3
20260505190056 52 67 0.0 3.0 0.00 0.21 0.21 75 1009.5
20260505184555 52 67 0.0 3.0 0.00 0.21 0.21 74 1009.5
20260505183053 52 70 0.0 4.0 0.00 0.21 0.21 77 1009.5
20260505181554 51 69 0.0 2.0 0.00 0.21 0.21 78 1009.7
20260505180100 51 64 2.0 4.0 0.00 0.21 0.21 80 1009.6
20260505174553 51 45 1.0 4.0 0.00 0.21 0.21 80 1009.5
20260505173052 50 43 2.0 6.0 0.00 0.21 0.21 80 1009.7
20260505171556 50 67 2.0 8.0 0.00 0.21 0.21 82 1009.7
20260505170051 50 37 1.0 6.0 0.01 0.21 0.21 83 1009.7
20260505164551 50 42 0.0 4.0 0.01 0.21 0.21 84 1010.0
20260505163050 50 43 2.0 4.0 0.01 0.21 0.21 83 1010.1
20260505161549 49 49 1.0 5.0 0.01 0.21 0.21 85 1010.0